"Pseudo-MPEC" for P20JEyG

Created 2018 Oct 13 14:18:08 UT using Find_Orb

Click here for an explanation of pseudo-MPECs

 
 Astrometry: 
     P20JEyG  C2018 10 10GUAstrometry#FpAYg%IJhS#6Yj/o0`QHVqcoukbv!fBqa8A%c/XF52
     P20JEyG  C2018 10 10@Ek1.aAnli$cSs=(?Y$@yFka^\'!k:A6+RxFMl8=JUJwr,,06+0\F52
     P20JEyG  C2018 10 10F3@(nuM.=no;:Ba-91b=/5I%u3pD,'1c%!7h=T\fpPcW]VCtRiw1F52
     P20JEyG KC2018 10 10d1'jUgKfm5EngfZ#R*TobkL_Ek4wx.^CcKn)?])3cpyDN,((!DM'L01
     P20JEyG KC2018 10 10)s'ta%w`35)Q`Q4%5qmxhFvR%x.I%5SR=M:v$T/9]:4)Y#BMR^YWL01
     P20JEyG KC2018 10 106A[p14HN;$tpg3S(gredacted;Be!Ee'!..TFBe7=F-N4/V*LZ$BL01
     P20JEyG KC2018 10 10H7P*YLoZKZ;MB$[iFFZcGgl[PHe)iyQ[O[:U*Ndi-amh*mid16+#K88
     P20JEyG KC2018 10 10K[%7^.Z79o@NcuX7!w[/^(QhP@RaV]\rCs0,-GEWgt@,2r)G[g)2K88
     P20JEyG KC2018 10 10/Y-at=x8yK6L[BZ)A7Jo1AC9_Dt'N`6-mR\1*N0Ud]7`qt(bxwM?K88
     P20JEyG HC2018 10 13yK2_o`@CGV+n.gYmojHZ'9tR3nfA+SlrlbX2_YCjN+1-x[QGo2:i204
     P20JEyG KC2018 10 13d(lXnFTSSFKFb*2HcUlkaXy_9*`.=Uw']C:Qin*wn0CWnU%1eq#L204
     P20JEyG |C2018 10 13OVeB`PW[(9rKSIo!-loqiLex+w=#i,0/see)JiY($;AvANy6O,\x807
     P20JEyG |C2018 10 13$%KCWV@u3tt*M#/p67tRXJs,Ic5Vy34X8W5IR06O0eVgtMX1!0CL807
     P20JEyG |C2018 10 13])O+S+s1D+Fm71]=`H(p5VwmAyWd%nmTne:Gqg2oLYcjy[*G=7tx807
     P20JEyG KC2018 10 13^;Qp0dM3mX4dG3LZO6$(q.P4bAb:%$EO^/:eN'X`;B`bU3v^#gNbH36
     P20JEyG KC2018 10 13q%8%?q]?GAN;,VB?=]aWqDv/GwvO_Gld9K^1bW2]_Miob3,Jj,u5H36
     P20JEyG KC2018 10 13)^65f?\2^v7vay-s\lF%bohu!lf.A!k%7K:WjQi(MZX4YeaNEOCPH36

Station data:
(204) Schiaparelli Observatory  (N45.867933 E8.770800)  Italy.  Observer L.
   Buzzi. 0.60-m f/4.64 Newtonian + CCD.
(807) Cerro Tololo Observatory, La Serena  (S30.169136 W70.805900)  Chile.
   1.5-m Ritchey-Chrétien.
(F52) Pan-STARRS 2, Haleakala  (N20.707384 W156.255910)  US/Hawaii.
(H36) Sandlot Observatory, Scranton  (N38.797693 W95.706400)  US/Kansas.
   Observer G. Hug. 0.56-m reflector + CCD.
(K88) GINOP-KHK, Piszkéstető  (N47.917622 E19.893600)  Hungary.  Observer K.
   Sárneczky. 0.60-m Schmidt + CCD.
(L01) Višnjan Observatory, Tičan  (N45.290900 E13.749300)  Croatia.  Observer
   K. Korlević. 1.0-m f/2.9 reflector + CCD.

Orbital elements:  P20JEyG
   Perihelion 2018 Nov 2.474071 +/- 0.0372 TT = 11:22:39 (JD 2458424.974071)
Epoch 2018 Oct 13.0 TT = JDT 2458404.5   Earth MOID: 0.1324   AutoNEOCP
M 354.77970 +/- 0.07                (J2000 ecliptic)
n   0.25497106 +/- 0.00332          Peri.   19.15574 +/- 0.038
a   2.46306263 +/- 0.0214           Node    22.40734 +/- 0.0048
e   0.5483456 +/- 0.00369           Incl.   19.11803 +/- 0.07
P   3.87                   H 24.1   G  0.15   U  8.9  
q 1.11245288 +/- 0.000567    Q 3.81367238 +/- 0.0426
From 17 observations 2018 Oct. 10-13; mean residual 0".30
Residuals in arcseconds: 
181010 F52  .15+  .03+    181010 K88  .39-  .77+    181013 807  .31+  .03+    
181010 F52  .12+  .02+    181010 K88  .23+  .48+    181013 807  .05+  .13-    
181010 F52  .01-  .04-    181010 K88  .20-  .02-    181013 H36  .23-  .53-    
181010 L01  .36-  .38-    181013 204  .42+  .08-    181013 H36  .29-  .26+    
181010 L01  .33+  .53-    181013 204  .11+  .08+    181013 H36  .45-  .26+    
181010 L01  .04-  .31-    181013 807  .14+  .09+    

Ephemerides (geocentric):
Date (UTC) HH   RA              Dec         delta   r     elong  mag " sig PA
---- -- -- --  -------------   -----------  ------ ------ -----  --- ---- ---
2018 10 13 14  01 55 53.663   +08 10 27.13  .14227 1.1379 169.5 20.8  .10  31
2018 10 13 15  01 55 51.751   +08 17 07.18  .14216 1.1378 169.6 20.8  .11  28
2018 10 13 16  01 55 49.831   +08 23 47.86  .14205 1.1377 169.6 20.8  .13  25
2018 10 13 17  01 55 47.905   +08 30 29.16  .14194 1.1376 169.7 20.8  .14  23
2018 10 13 18  01 55 45.972   +08 37 11.08  .14183 1.1375 169.7 20.8  .16  21
2018 10 13 19  01 55 44.033   +08 43 53.62  .14172 1.1374 169.7 20.8  .18  20
2018 10 13 20  01 55 42.086   +08 50 36.76  .14161 1.1373 169.8 20.8  .19  19
2018 10 13 21  01 55 40.132   +08 57 20.52  .14151 1.1372 169.8 20.8  .21  18
2018 10 13 22  01 55 38.172   +09 04 04.89  .14140 1.1371 169.8 20.8  .23  17
2018 10 13 23  01 55 36.204   +09 10 49.85  .14129 1.1370 169.9 20.8  .25  16
2018 10 14 00  01 55 34.230   +09 17 35.42  .14119 1.1369 169.9 20.8  .27  15
2018 10 14 01  01 55 32.249   +09 24 21.59  .14108 1.1368 170.0 20.8  .29  15
2018 10 14 02  01 55 30.261   +09 31 08.36  .14098 1.1367 170.0 20.8  .31  14
2018 10 14 03  01 55 28.266   +09 37 55.72  .14088 1.1366 170.0 20.8  .33  13
2018 10 14 04  01 55 26.264   +09 44 43.66  .14077 1.1365 170.0 20.8  .35  13
2018 10 14 05  01 55 24.255   +09 51 32.20  .14067 1.1364 170.1 20.7  .37  12
2018 10 14 06  01 55 22.239   +09 58 21.31  .14057 1.1363 170.1 20.7  .39  12
2018 10 14 07  01 55 20.216   +10 05 11.01  .14047 1.1362 170.1 20.7  .41  12
2018 10 14 08  01 55 18.187   +10 12 01.29  .14037 1.1361 170.2 20.7  .43  11
2018 10 14 09  01 55 16.150   +10 18 52.14  .14027 1.1360 170.2 20.7  .46  11
2018 10 14 10  01 55 14.107   +10 25 43.56  .14017 1.1359 170.2 20.7  .48  11
2018 10 14 11  01 55 12.057   +10 32 35.55  .14007 1.1358 170.2 20.7  .50  10
2018 10 14 12  01 55 09.999   +10 39 28.10  .13998 1.1357 170.3 20.7  .53  10
2018 10 14 13  01 55 07.935   +10 46 21.21  .13988 1.1356 170.3 20.7  .55  10
2018 10 14 14  01 55 05.864   +10 53 14.89  .13978 1.1355 170.3 20.7  .58  10
2018 10 14 15  01 55 03.786   +11 00 09.11  .13969 1.1354 170.3 20.7  .60   9
2018 10 14 16  01 55 01.701   +11 07 03.89  .13959 1.1353 170.3 20.7  .63   9
2018 10 14 17  01 54 59.609   +11 13 59.22  .13950 1.1352 170.3 20.7  .65   9
2018 10 14 18  01 54 57.510   +11 20 55.09  .13941 1.1351 170.4 20.7  .68   9
2018 10 14 19  01 54 55.404   +11 27 51.51  .13932 1.1350 170.4 20.7  .71   9
2018 10 14 20  01 54 53.291   +11 34 48.46  .13922 1.1349 170.4 20.7  .74   8
2018 10 14 21  01 54 51.172   +11 41 45.94  .13913 1.1348 170.4 20.7  .77   8
2018 10 14 22  01 54 49.045   +11 48 43.96  .13904 1.1347 170.4 20.7  .79   8
2018 10 14 23  01 54 46.911   +11 55 42.50  .13895 1.1346 170.4 20.7  .82   8
2018 10 15 00  01 54 44.771   +12 02 41.57  .13886 1.1345 170.4 20.7  .85   8
2018 10 15 01  01 54 42.623   +12 09 41.16  .13878 1.1344 170.4 20.7  .88   8
2018 10 15 02  01 54 40.469   +12 16 41.26  .13869 1.1343 170.4 20.7  .91   7
2018 10 15 03  01 54 38.307   +12 23 41.88  .13860 1.1342 170.4 20.7  .94   7
2018 10 15 04  01 54 36.138   +12 30 43.00  .13851 1.1341 170.4 20.7  .98   7
2018 10 15 05  01 54 33.963   +12 37 44.63  .13843 1.1340 170.4 20.7  1.0   7
2018 10 15 06  01 54 31.780   +12 44 46.76  .13834 1.1339 170.4 20.7  1.0   7
2018 10 15 07  01 54 29.591   +12 51 49.39  .13826 1.1338 170.4 20.7  1.1   7
2018 10 15 08  01 54 27.395   +12 58 52.52  .13818 1.1337 170.4 20.7  1.1   7
2018 10 15 09  01 54 25.191   +13 05 56.13  .13809 1.1336 170.4 20.7  1.1   7
2018 10 15 10  01 54 22.981   +13 13 00.23  .13801 1.1335 170.4 20.7  1.2   6
2018 10 15 11  01 54 20.763   +13 20 04.81  .13793 1.1334 170.4 20.7  1.2   6
2018 10 15 12  01 54 18.539   +13 27 09.88  .13785 1.1333 170.4 20.7  1.2   6
2018 10 15 13  01 54 16.307   +13 34 15.41  .13777 1.1332 170.4 20.7  1.3   6